Weather History for Rogers, AR

Change the Weather History Date:

Thursday, April 4, 2013

  Actual Average Record
Temperature  
Mean Temperature 47 °F -  
Max Temperature 55 °F 62 °F 80 °F (2001)
Min Temperature 39 °F 43 °F 28 °F (2002)
Degree Days  
Heating Degree Days 18    
Moisture  
Dew Point 33 °F    
Average Humidity 64    
Maximum Humidity 89    
Minimum Humidity 37    
Precipitation  
Precipitation 0.01 in - - ()
Sea Level Pressure  
Sea Level Pressure 30.13 in    
Wind  
Wind Speed 4 mph (North)    
Max Wind Speed 14 mph    
Max Gust Speed 20 mph    
Visibility 10 miles    
Events Rain    
Averages and records for this station are not official NWS values.
T = Trace of Precipitation, MM = Missing Value Source: NWS Daily Summary

Daily Weather History Graph

Daily Weather History Graph

Search for Another Location

Airport:

Trip Planner

Search our weather history database for the weather conditions in past years. The results will help you decide how hot, cold, wet, or windy it might be!

Date:

Astronomy

Apr. 04, 2013 Rise Set
Actual Time 6:57 AM CDT 7:41 PM CDT
Civil Twilight 6:31 AM CDT 8:07 PM CDT
Nautical Twilight 6:01 AM CDT 8:38 PM CDT
Astronomical Twilight 5:29 AM CDT 9:09 PM CDT
Moon 3:15 AM CDT (4/4) 2:09 PM CDT (4/4)
Length of Visible Light 13h 35m
Length of Day
12h 43m
Waning Crescent, 33% of the Moon is Illuminated
Apr 4
Waning Crescent
Apr 10
New
Apr 18
First Quarter
Apr 25
Full
May 2
Last Quarter

Hourly Weather History & Observations

Time (CDT) Temp. Windchill Dew Point Humidity Pressure Visibility Wind Dir Wind Speed Gust Speed Precip Events Conditions
12:57 AM 41.0 °F - 37.9 °F 89% 30.18 in 10.0 mi Calm Calm - 0.00 in Rain Light Rain
1:57 AM 41.0 °F 39.0 °F 37.9 °F 89% 30.17 in 10.0 mi NNW 3.5 mph - 0.00 in   Overcast
2:57 AM 41.0 °F 39.0 °F 36.0 °F 82% 30.16 in 10.0 mi NNE 3.5 mph - 0.00 in Rain Light Rain
3:57 AM 39.9 °F 36.7 °F 37.0 °F 89% 30.15 in 10.0 mi NNW 4.6 mph - 0.00 in Rain Light Rain
4:57 AM 39.0 °F 34.8 °F 36.0 °F 89% 30.15 in 10.0 mi NNW 5.8 mph - 0.01 in Rain Light Rain
5:57 AM 39.0 °F 36.8 °F 35.1 °F 86% 30.15 in 10.0 mi North 3.5 mph - 0.00 in   Overcast
6:57 AM 39.9 °F 34.5 °F 34.0 °F 79% 30.16 in 10.0 mi ENE 8.1 mph - N/A   Overcast
7:57 AM 39.0 °F 35.7 °F 34.0 °F 82% 30.16 in 10.0 mi East 4.6 mph - 0.00 in Rain Light Rain
8:57 AM 39.0 °F 35.7 °F 35.1 °F 86% 30.15 in 10.0 mi NE 4.6 mph - 0.00 in   Overcast
9:57 AM 41.0 °F 38.0 °F 35.1 °F 79% 30.14 in 10.0 mi Variable 4.6 mph - 0.00 in   Scattered Clouds
10:57 AM 44.1 °F 42.5 °F 35.1 °F 71% 30.14 in 10.0 mi Variable 3.5 mph - N/A   Clear
11:57 AM 48.9 °F - 33.1 °F 54% 30.14 in 10.0 mi NNW 8.1 mph - N/A   Mostly Cloudy
12:57 PM 50.0 °F - 30.9 °F 48% 30.13 in 10.0 mi NW 4.6 mph - N/A   Clear
1:57 PM 52.0 °F - 32.0 °F 47% 30.12 in 10.0 mi North 5.8 mph - N/A   Overcast
2:57 PM 54.0 °F - 28.0 °F 37% 30.10 in 10.0 mi NNW 13.8 mph 19.6 mph N/A   Overcast
3:57 PM 54.0 °F - 30.9 °F 41% 30.09 in 10.0 mi NNW 10.4 mph 17.3 mph N/A   Mostly Cloudy
4:57 PM 55.0 °F - 30.0 °F 38% 30.08 in 10.0 mi NNE 11.5 mph - N/A   Mostly Cloudy
5:57 PM 54.0 °F - 30.9 °F 41% 30.09 in 10.0 mi NNE 8.1 mph - N/A   Overcast
6:57 PM 53.1 °F - 32.0 °F 45% 30.09 in 10.0 mi North 8.1 mph - N/A   Overcast
7:57 PM 52.0 °F - 32.0 °F 47% 30.09 in 10.0 mi NNW 3.5 mph - N/A   Overcast
8:57 PM 51.1 °F - 32.0 °F 48% 30.11 in 10.0 mi Calm Calm - N/A   Overcast
9:57 PM 50.0 °F - 28.9 °F 44% 30.14 in 10.0 mi Calm Calm - N/A   Scattered Clouds
10:57 PM 46.0 °F - 30.0 °F 54% 30.15 in 10.0 mi Calm Calm - N/A   Clear
11:57 PM 44.1 °F - 30.9 °F 60% 30.15 in 10.0 mi Calm Calm - N/A   Clear